KAZEOSAT 2

Last updated on Mon Sep 07 2026 00:02:45 GMT+0000 (Coordinated Universal Time)

1 40010U 14033A 26249.59904928 -.00000016 00000+0 39034-5 0 9996 2 40010 97.5379 84.9051 0010005 55.5595 304.6565 14.85550647661045
UTC large
Height (km)
Speed (km/s)
/
Latitude / Longitude
Inclination (degrees)
Orbital Period (minutes)
Azimuth
Elevation
Range (km)
Doppler Factor

Next 0 passes for location: London (51.5072 / 0.1276)

No passes found over London.
KAZEOSAT 2